Location: *
(49.4547°N, 7.9131°E)
Time: 11:14:08
(UTC+00:00)

CZ-2D R/B - Pass Details

Date: 22 September 2019
Orbit: 523 x 538 km, 97.4° (Epoch: 13 October)

Event Time Altitude Azimuth Distance (km) Brightness Sun altitude
Rises 18:07:42 0° 164° (SSE) 2,642 6.5 -7.4°
Reaches altitude 10° 18:09:47 10° 164° (SSE) 1,758 5.6 -7.7°
Maximum altitude 18:13:35 85° 77° (ENE) 533 3.2 -8.3°
Drops below altitude 10° 18:17:25 10° 348° (NNW) 1,776 6.2 -8.9°
Sets 18:19:32 0° 348° (NNW) 2,671 7.2 -9.3°
